Date String (YYYY-MM-DD hh:mm:ss) UTC,Instrument flags,Ambient pressure (hPa),Sample flow (lpm),Bypass flow (lpm),Sample temperature (°C),Ambient temperature (°C),ASC tube jacket temperature (°C),LED temperature (°C),Box temperature (°C),Sample RH (%),Span deviation,Mass concentration (μg/m³),Mass concentration (μg/m³),Mass concentration (μg/m³)
DateTimeUTC,F1_M11,P_M11,Q1_M11,Q2_M11,T1_M11,T2_M11,T3_M11,T4_M11,T5_M11,U1_M11,ZSPAN_M11,X0_M11,X2_M11,X1_M11
2022-07-06 12:00:00,,0829.2,4.99,0.00,31.9,27.9,00.0,40.1,32.5,34.7,-001.4,0012.14,0006.55,0005.49
2022-07-06 12:01:00,,0829.3,5.00,0.00,31.8,27.8,00.0,40.1,32.4,35.0,-001.3,0012.37,0006.55,0005.49
2022-07-06 12:02:00,,0829.2,4.99,0.00,31.7,27.9,00.0,40.1,32.4,35.1,-001.1,0012.49,0006.60,0005.50
2022-07-06 12:03:00,,0829.3,5.00,0.00,31.9,28.0,00.0,40.1,32.5,34.8,-000.8,0012.41,0006.57,0005.48
2022-07-06 12:04:00,,0829.2,5.00,0.00,32.0,28.2,00.0,40.1,32.6,34.5,-000.7,0013.01,0006.55,0005.45
2022-07-06 12:05:00,,0829.3,5.00,0.00,32.0,28.3,00.0,40.1,32.5,34.4,-000.9,0012.89,0006.52,0005.43
2022-07-06 12:06:00,,0829.3,5.00,0.00,32.0,28.5,00.0,40.1,32.5,34.4,-000.8,0013.00,0006.50,0005.40
2022-07-06 12:07:00,,0829.3,5.00,0.00,32.0,28.6,00.0,40.1,32.5,34.4,-001.2,0012.82,0006.51,0005.39
2022-07-06 12:08:00,,0829.3,5.01,0.00,32.0,28.7,00.0,40.1,32.5,34.5,-001.6,0013.01,0006.47,0005.38
2022-07-06 12:09:00,,0829.2,4.99,0.00,31.9,28.8,00.0,40.1,32.5,34.5,-001.6,0013.33,0006.46,0005.37
2022-07-06 12:10:00,,0829.2,5.00,0.00,31.9,28.9,00.0,40.2,32.6,34.6,-001.4,0013.45,0006.46,0005.35
2022-07-06 12:11:00,,0829.2,5.00,0.00,31.9,29.0,00.0,40.2,32.6,34.7,-001.0,0013.98,0006.47,0005.35
2022-07-06 12:12:00,,0829.2,4.99,0.00,31.8,29.0,00.0,40.2,32.6,34.7,-001.1,0013.87,0006.42,0005.34
2022-07-06 12:13:00,,0829.2,5.00,0.00,31.8,29.1,00.0,40.2,32.6,34.8,-001.2,0014.33,0006.38,0005.33
2022-07-06 12:14:00,,0829.2,5.00,0.00,31.8,29.1,00.0,40.2,32.6,34.8,-001.1,0014.46,0006.43,0005.36
2022-07-06 12:15:00,,0829.2,5.01,0.00,31.7,29.2,00.0,40.2,32.6,34.9,-001.0,0013.72,0006.49,0005.41
2022-07-06 12:16:00,,0829.2,5.01,0.00,31.7,29.2,00.0,40.2,32.7,34.9,-001.0,0013.87,0006.56,0005.45
2022-07-06 12:17:00,,0829.2,5.01,0.00,31.7,29.3,00.0,40.2,32.7,34.9,-001.3,0013.75,0006.61,0005.50
2022-07-06 12:18:00,,0829.2,4.99,0.00,31.7,29.3,00.0,40.2,32.7,34.9,-001.4,0013.68,0006.61,0005.52
2022-07-06 12:19:00,,0829.2,5.00,0.00,31.7,28.8,00.0,40.1,32.7,34.8,-001.3,0013.35,0006.63,0005.56
2022-07-06 12:20:00,,0829.2,5.00,0.00,31.6,28.1,00.0,40.1,32.6,34.9,-000.9,0012.87,0006.64,0005.59
2022-07-06 12:21:00,,0829.2,5.02,0.00,31.6,27.9,00.0,40.0,32.4,35.1,-000.7,0012.97,0006.69,0005.61
2022-07-06 12:22:00,,0829.3,4.99,0.00,31.6,27.9,00.0,40.0,32.5,34.9,-001.0,0012.54,0006.69,0005.60
2022-07-06 12:23:00,,0829.3,5.01,0.00,31.8,27.9,00.0,40.0,32.5,34.5,-001.3,0012.43,0006.71,0005.59
2022-07-06 12:24:00,,0829.3,4.99,0.00,31.8,28.1,00.0,39.9,32.4,34.4,-001.8,0012.33,0006.69,0005.59
2022-07-06 12:25:00,,0829.3,4.99,0.00,31.8,28.2,00.0,39.9,32.4,34.5,-002.4,0012.37,0006.66,0005.57
2022-07-06 12:26:00,,0829.3,5.01,0.00,31.8,28.4,00.0,40.0,32.4,34.5,-002.2,0012.25,0006.60,0005.54
2022-07-06 12:27:00,,0829.2,5.00,0.00,31.7,28.5,00.0,40.0,32.4,34.6,-001.8,0012.63,0006.53,0005.52
2022-07-06 12:28:00,,0829.2,5.00,0.00,31.7,28.6,00.0,40.0,32.4,34.6,-001.7,0013.15,0006.52,0005.51
2022-07-06 12:29:00,,0829.4,5.01,0.00,31.7,28.7,00.0,40.0,32.4,34.6,-001.7,0013.15,0006.50,0005.50
2022-07-06 12:30:00,,0829.2,4.99,0.00,31.6,28.8,00.0,40.0,32.5,34.7,-001.6,0013.26,0006.49,0005.49
2022-07-06 12:31:00,,0829.2,5.00,0.00,31.6,28.9,00.0,40.0,32.5,34.7,-001.7,0013.36,0006.49,0005.48
2022-07-06 12:32:00,,0829.2,5.01,0.00,31.6,29.0,00.0,40.0,32.5,34.8,-001.9,0013.64,0006.48,0005.49
2022-07-06 12:33:00,,0829.3,4.99,0.00,31.6,29.0,00.0,40.0,32.5,34.8,-001.8,0014.95,0006.52,0005.52
2022-07-06 12:34:00,,0829.3,5.00,0.00,31.5,29.1,00.0,40.0,32.5,34.8,-001.7,0015.16,0006.56,0005.54
2022-07-06 12:35:00,,0829.3,5.00,0.00,31.5,29.2,00.0,40.0,32.6,34.9,-001.7,0014.89,0006.55,0005.56
2022-07-06 12:36:00,,0829.4,4.99,0.00,31.5,29.2,00.0,40.0,32.6,34.9,-001.6,0015.18,0006.61,0005.58
2022-07-06 12:37:00,,0829.4,5.01,0.00,31.5,29.3,00.0,40.0,32.6,34.9,-001.9,0015.53,0006.65,0005.60
2022-07-06 12:38:00,,0829.4,5.01,0.00,31.5,29.3,00.0,40.0,32.6,35.0,-002.3,0015.32,0006.75,0005.63
2022-07-06 12:39:00,,0829.5,4.99,0.00,31.5,29.0,00.0,40.0,32.6,34.9,-002.3,0014.66,0006.75,0005.64
2022-07-06 12:40:00,,0829.4,5.00,0.00,31.4,28.3,00.0,39.9,32.5,35.1,-002.2,0014.87,0006.74,0005.63
2022-07-06 12:41:00,,0829.4,5.01,0.00,31.5,28.0,00.0,39.9,32.5,35.2,-002.4,0015.80,0006.76,0005.62
2022-07-06 12:42:00,,0829.5,5.00,0.00,31.6,27.9,00.0,39.9,32.5,35.0,-002.6,0016.33,0006.75,0005.58
2022-07-06 12:43:00,,0829.5,5.00,0.00,31.8,27.9,00.0,39.8,32.5,34.5,-002.8,0016.03,0006.70,0005.51
2022-07-06 12:44:00,,0829.5,5.00,0.00,31.9,28.0,00.0,39.8,32.5,34.3,-002.7,0014.83,0006.58,0005.46
2022-07-06 12:45:00,,0829.4,5.00,0.00,31.9,28.2,00.0,39.9,32.4,34.3,-002.6,0014.13,0006.48,0005.40
2022-07-06 12:46:00,,0829.5,4.99,0.00,31.9,28.3,00.0,39.9,32.4,34.3,-002.5,0013.82,0006.45,0005.36
2022-07-06 12:47:00,,0829.5,5.00,0.00,31.9,28.4,00.0,39.9,32.4,34.3,-002.4,0013.50,0006.38,0005.31
2022-07-06 12:48:00,,0829.5,5.00,0.00,31.8,28.5,00.0,39.9,32.4,34.4,-002.4,0013.36,0006.40,0005.29
2022-07-06 12:49:00,,0829.5,5.00,0.00,31.8,28.7,00.0,40.0,32.4,34.5,-002.1,0013.46,0006.34,0005.26
2022-07-06 12:50:00,,0829.5,5.00,0.00,31.8,28.8,00.0,40.0,32.5,34.7,-002.1,0013.47,0006.32,0005.25
2022-07-06 12:51:00,,0829.5,5.01,0.00,31.8,28.8,00.0,40.0,32.5,34.7,-001.8,0013.54,0006.33,0005.22
2022-07-06 12:52:00,,0829.5,4.99,0.00,31.7,28.9,00.0,40.0,32.5,34.8,-001.7,0012.71,0006.36,0005.22
2022-07-06 12:53:00,,0829.5,5.00,0.00,31.7,29.0,00.0,40.1,32.5,34.9,-001.7,0012.52,0006.39,0005.24
2022-07-06 12:54:00,,0829.6,5.01,0.00,31.7,29.0,00.0,40.1,32.6,35.0,-001.4,0013.27,0006.44,0005.29
2022-07-06 12:55:00,,0829.5,4.99,0.00,31.7,29.1,00.0,40.1,32.6,34.9,-001.2,0015.34,0006.54,0005.33
2022-07-06 12:56:00,,0829.5,5.01,0.00,31.9,29.2,00.0,40.1,32.7,34.6,-001.0,0015.78,0006.60,0005.35
2022-07-06 12:57:00,,0829.5,5.01,0.00,31.9,29.2,00.0,40.1,32.8,34.5,-000.5,0015.72,0006.61,0005.37
2022-07-06 12:58:00,,0829.6,5.00,0.00,32.0,29.3,00.0,40.1,32.8,34.5,-000.8,0015.55,0006.57,0005.38
2022-07-06 12:59:00,,0829.6,5.00,0.00,32.0,29.3,00.0,40.1,32.8,34.5,-001.1,0015.34,0006.52,0005.39
